Weather observations for the past three days for
Boise Air Terminal
Imperial (Metric)
Date Time (mdt) Wind (mph) Vis. (mi.) Weather Sky Cond. Temperature (ºF) Relative Humidity Wind Chill (°F) Heat Index (°F) Pressure Precipitation (in)
Air Dwpt 6 hour altimeter (in) sea level (mb) 1 hr 3 hr 6 hr
Max. Min.
23 17:53 N 7 8.00 Fair CLR 104 48 104 88 15% 100 29.95 1010.1
23 16:53 W 8 6.00 Fair with Haze CLR 102.9 48.9 16% 100 29.97 1010.7
23 15:53 Vrbl 5 3.00 Fair with Haze CLR 100 48 17% 97 29.99 1011.4
23 14:53 Vrbl 6 2.50 Fair with Haze CLR 98.1 50 20% 95 30.01 1012.0
23 13:53 SW 6 2.50 Mostly Cloudy with Haze BKN025 95 50 22% 92 30.02 1012.5
23 12:53 Vrbl 6 2.00 Overcast with Haze OVC020 93 51.1 24% 90 30.03 1012.8
23 11:53 W 7 2.00 Overcast with Haze OVC017 88 51.1 88 73.9 28% 85 30.04 1013.4
23 10:53 W 8 1.75 Overcast with Haze OVC016 86 51.1 30% 84 30.05 1013.5
23 09:53 SW 5 5.00 Fair with Haze CLR 82.9 50 32% 81 30.05 1013.4
23 08:53 S 6 2.50 Fair with Haze CLR 80.1 50 35% 80 30.04 1013.4
23 07:53 SE 6 10.00 Fair CLR 75 50 42% 78 30.03 1012.9
23 06:53 SE 3 2.50 Fair with Haze CLR 75 52 45% 78 30.03 1012.8
23 05:53 S 3 6.00 Fair with Haze CLR 73.9 51.1 90 73.9 45% 30 1011.9
23 04:53 SW 3 8.00 Fair CLR 78.1 51.1 39% 79 29.97 1010.6
23 03:53 S 8 10.00 Fair CLR 80.1 46 30% 79 29.95 1010.0
23 02:53 Vrbl 3 10.00 Fair CLR 84.9 48 28% 83 29.92 1008.9
23 01:53 SE 12 10.00 Fair CLR 84.9 48.9 29% 83 29.92 1009.0
23 00:53 S 10 10.00 Fair CLR 89.1 46 23% 86 29.92 1008.7
22 23:53 S 5 10.00 Fair CLR 88 46.9 106 88 24% 85 29.9 1008.0
22 22:53 SE 8 10.00 Fair CLR 91.9 46 21% 88 29.89 1007.6
22 21:53 NE 7 10.00 Fair CLR 95 52 23% 92 29.87 1007.1
22 20:53 N 3 10.00 Fair CLR 98.1 51.1 20% 95 29.85 1006.4
22 19:53 NW 5 10.00 Fair CLR 102.9 45 14% 99 29.84 1006.2
22 18:53 W 6 10.00 Fair CLR 104 45 13% 100 29.85 1006.5
22 17:53 NW 6 10.00 Fair CLR 105.1 45 106 96.1 13% 101 29.87 1007.0
22 16:53 Calm 10.00 Fair CLR 105.1 46 14% 101 29.88 1007.5
22 15:53 W 8 10.00 Fair CLR 102.9 46 15% 99 29.9 1008.2
22 14:53 Vrbl 7 10.00 Fair CLR 102 46 15% 98 29.92 1008.9
22 13:53 SW 7 10.00 Fair CLR 100 46 16% 96 29.94 1009.7
22 12:53 NW 8 10.00 Fair CLR 98.1 45 16% 94 29.96 1010.0
22 11:53 W 10 10.00 Fair CLR 97 45 97 82 17% 93 29.97 1010.6
22 10:53 S 8 10.00 Fair CLR 95 45 18% 91 29.99 1011.2
22 09:53 SE 13 10.00 Fair CLR 91.9 46 21% 88 29.99 1011.3
22 08:53 E 14 10.00 Fair CLR 89.1 46.9 23% 86 29.99 1011.2
22 07:53 SE 13 10.00 Fair CLR 84 48 29% 82 29.98 1011.0
22 06:53 S 5 10.00 Fair CLR 82 48.9 32% 81 29.96 1010.3
22 05:53 SE 5 10.00 Fair CLR 84 48.9 95 84 30% 82 29.95 1009.7
22 04:53 NW 6 10.00 Fair CLR 84.9 48 28% 83 29.94 1009.4
22 03:53 SE 8 10.00 Mostly Cloudy FEW075 SCT100 BKN120 88 48.9 26% 85 29.97 1010.2
22 02:53 NE 7 10.00 Fair CLR 88 48.9 26% 85 29.97 1010.5
22 01:53 SW 12 10.00 Fair CLR 86 51.1 30% 84 29.98 1010.7
22 00:53 E 12 10.00 A Few Clouds FEW075 FEW095 93 46 20% 89 29.97 1010.5
21 23:53 SW 3 10.00 Fair CLR 89.1 48 107.1 89.1 24% 86 29.98 1011.1
21 22:53 NW 8 10.00 Fair CLR 90 48 24% 87 29.98 1010.9
21 21:53 Calm 10.00 Fair CLR 93.9 45 18% 90 29.97 1010.8
21 20:53 E 15 G 21 10.00 Fair CLR 97 45 17% 93 29.95 1009.9
21 19:53 E 15 10.00 Fair CLR 99 44.1 15% 95 29.94 1009.9
21 18:53 W 10 10.00 Fair CLR 102.9 46 15% 99 29.91 1008.8
21 17:53 W 14 10.00 Fair CLR 107.1 46 108 93.9 13% 103 29.9 1008.3
21 16:53 N 6 10.00 Fair CLR 107.1 45 12% 103 29.91 1008.7
21 15:53 NE 6 10.00 Fair CLR 107.1 46 13% 103 29.93 1009.2
21 14:53 N 9 10.00 Fair CLR 104 48.9 16% 101 29.96 1010.4
21 13:53 N 7 10.00 Fair CLR 100.9 48 17% 97 29.99 1011.5
21 12:53 N 6 10.00 Fair CLR 96.1 46.9 19% 92 30.03 1012.9
21 11:53 E 5 10.00 Fair CLR 93.9 44.1 93.9 73.9 18% 90 30.04 1013.5
21 10:53 SE 8 10.00 Fair CLR 91 42.1 18% 87 30.05 1013.8
21 09:53 SE 12 10.00 Fair CLR 86 43 22% 83 30.06 1013.9
21 08:53 SE 7 10.00 Fair CLR 82 43 25% 80 30.06 1014.1
21 07:53 SE 9 10.00 Fair CLR 77 41 28% 78 30.05 1013.8
21 06:53 SE 10 10.00 Fair CLR 75 42.1 31% 77 30.04 1013.5
21 05:53 SE 10 10.00 Fair CLR 75 43 82.9 73 32% 77 30.04 1013.2
21 04:53 S 7 10.00 Fair CLR 75.9 42.1 30% 77 30.02 1012.7
21 03:53 Calm 10.00 Fair CLR 80.1 42.1 26% 79 30.01 1012.2
21 02:53 Calm 10.00 Fair CLR 79 42.1 27% 78 30 1011.9
21 01:53 SE 5 10.00 Fair CLR 78.1 45 31% 78 29.99 1011.9
21 00:53 SE 6 10.00 Fair CLR 80.1 53.1 39% 80 30 1012.2
20 23:53 Calm 10.00 Fair CLR 82 55.9 102 82 41% 82 30 1012.3
20 22:53 S 3 10.00 Fair CLR 84 57 40% 83 30 1012.2
20 21:53 W 5 10.00 Fair CLR 91.9 51.1 25% 89 30 1012.0
20 20:53 NW 5 10.00 Fair CLR 93.9 53.1 25% 91 30 1012.1
20 19:53 NW 8 10.00 Fair CLR 99 52 21% 96 29.99 1011.9
20 18:53 W 9 10.00 Fair CLR 100.9 48.9 17% 98 29.99 1012.0
Date Time (mdt) Wind (mph) Vis. (mi.) Weather Sky Cond. Air Dwpt Max. Min. Relative Humidity Wind Chill (°F) Heat Index (°F) altimeter (in) sea level (mb) 1 hr 3 hr 6 hr
6 hour
Temperature (ºF) Pressure Precipitation (in)